Weather reports worldwide

Advertisment
Loftus, United Kingdom (3275): temperature & dewpoint: 12.08.2017 00:00:00 - 18.08.2017 00:00:00 (BST)Loftus, United Kingdom (3275): temperature -20cm & temperature -100cm: 12.08.2017 00:00:00 - 18.08.2017 00:00:00 (BST)Loftus, United Kingdom (3275): wind speed & gusts: 12.08.2017 00:00:00 - 18.08.2017 00:00:00 (BST)Loftus, United Kingdom (3275): wind direction: 12.08.2017 00:00:00 - 18.08.2017 00:00:00 (BST)Loftus, United Kingdom (3275): reduced air pressure: 12.08.2017 00:00:00 - 18.08.2017 00:00:00 (BST)Loftus, United Kingdom (3275): visibility: 12.08.2017 00:00:00 - 18.08.2017 00:00:00 (BST)Loftus, United Kingdom (3275): precipitation: 12.08.2017 00:00:00 - 18.08.2017 00:00:00 (BST)
Date & Time tt [°C] td [°C] tt -20cm [°C] tt -100cm [°C] ff [km/h] ff [kn] fx [km/h] fx [kn] dd ppp [hPa] vv [km] rr [mm]
18.08.2017 00:00:00 13,4 10,2 - - 22 12 - - S 1006,1 30 0,0
17.08.2017 23:00:00 13,8 10,8 - - 15 8 - - S 1006,3 30 0,0
17.08.2017 22:00:00 14,1 10,7 - - 13 7 - - SSW 1006,6 35 0,0
17.08.2017 21:00:00 15,2 11,3 - - 11 6 - - SSW 1006,8 35 0,0
17.08.2017 20:00:00 16,6 13,3 - - 9 5 - - S 1006,8 45 0,0
17.08.2017 19:00:00 15,9 13,4 - - 24 13 - - S 1007,1 35 0,0
17.08.2017 18:00:00 20,6 10,9 - - 18 10 - - W 1006,3 40 0,0
17.08.2017 17:00:00 23,0 10,7 - - 22 12 - - W 1006,0 35 0,0
17.08.2017 16:00:00 23,2 9,4 - - 24 13 - - WSW 1006,1 40 0,0
17.08.2017 15:00:00 23,1 11,0 - - 16 9 - - W 1006,0 30 0,0
17.08.2017 14:00:00 21,8 13,1 - - 21 11 - - SW 1005,9 40 0,0
17.08.2017 13:00:00 21,2 13,1 - - 21 11 - - W 1006,0 50 0,0
17.08.2017 12:00:00 19,3 12,7 - - 18 10 - - WSW 1006,3 40 0,0
17.08.2017 11:00:00 19,5 14,8 - - 18 10 - - WSW 1006,5 30 0,0
17.08.2017 10:00:00 17,0 15,1 15,5 14,5 22 12 - - WSW 1006,5 35 0,0
17.08.2017 09:00:00 14,7 14,4 - - 18 10 - - SW 1006,5 14 0,0
17.08.2017 08:00:00 13,7 13,3 - - 21 11 - - SSW 1006,4 11 0,0
17.08.2017 07:00:00 13,1 12,8 - - 21 11 - - S 1006,1 11 0,0
17.08.2017 06:00:00 13,1 12,7 - - 29 16 - - SSW 1005,9 14 0,0
17.08.2017 05:00:00 13,0 12,6 - - 26 14 46 25 S 1006,0 30 0,0
17.08.2017 04:00:00 13,1 12,5 - - 37 20 54 29 SSW 1006,7 9 0,0
17.08.2017 03:00:00 13,2 12,3 - - 28 15 52 28 SSW 1007,2 10 0,0
17.08.2017 02:00:00 14,7 11,7 - - 29 16 54 29 SSW 1007,8 40 0,0
17.08.2017 01:00:00 16,0 11,3 - - 31 17 54 29 S 1008,0 40 0,0
17.08.2017 00:00:00 16,4 11,5 - - 39 21 52 28 S 1008,9 45 0,0
16.08.2017 23:00:00 16,5 11,1 - - 35 19 57 31 S 1009,6 40 0,0
16.08.2017 22:00:00 16,7 10,3 - - 29 16 54 29 S 1010,2 45 0,0
16.08.2017 21:00:00 17,1 9,8 - - 26 14 46 25 SSE 1011,1 40 0,0
16.08.2017 20:00:00 17,4 9,5 - - 34 18 - - S 1011,5 40 0,0
16.08.2017 19:00:00 18,1 9,8 - - 24 13 50 27 S 1011,8 45 0,0
16.08.2017 18:00:00 19,0 9,3 - - 31 17 50 27 SSW 1012,7 50 0,0
16.08.2017 17:00:00 20,3 9,4 - - 35 19 48 26 SSW 1013,2 30 0,0
16.08.2017 16:00:00 20,8 9,8 - - 31 17 46 25 SSW 1013,7 40 0,0
16.08.2017 15:00:00 20,0 10,0 - - 28 15 - - SSW 1014,6 35 0,0
16.08.2017 14:00:00 19,2 9,5 - - 28 15 - - SSW 1015,0 30 0,0
16.08.2017 13:00:00 18,8 8,9 - - 28 15 48 26 S 1015,5 25 0,0
16.08.2017 12:00:00 18,0 10,1 - - 34 18 50 27 S 1015,9 30 0,0
16.08.2017 11:00:00 17,5 11,0 - - 34 18 - - SSW 1016,6 27 0,0
16.08.2017 10:00:00 16,0 10,2 15,5 14,5 22 12 - - S 1017,0 19 0,0
16.08.2017 09:00:00 15,0 10,4 - - 22 12 - - S 1017,3 30 0,0
16.08.2017 08:00:00 14,2 10,6 - - 18 10 - - S 1017,4 30 0,0
16.08.2017 07:00:00 10,8 9,5 - - 13 7 - - SSW 1017,6 35 0,0
16.08.2017 06:00:00 10,5 8,9 - - 11 6 - - SSW 1017,4 40 0,0
16.08.2017 05:00:00 11,1 8,6 - - 9 5 - - SSW 1017,2 50 0,0
16.08.2017 04:00:00 10,8 9,3 - - 11 6 - - SSW 1017,4 35 0,0
16.08.2017 03:00:00 11,3 9,5 - - 11 6 - - SSW 1017,4 45 0,0
16.08.2017 02:00:00 11,8 9,9 - - 8 4 - - S 1017,3 40 0,0
16.08.2017 01:00:00 11,5 9,6 - - 15 8 - - SW 1017,4 40 0,0
16.08.2017 00:00:00 11,8 9,5 - - 16 9 - - SW 1017,2 40 0,0
15.08.2017 23:00:00 11,0 8,6 - - 9 5 - - SW 1016,9 45 0,0
15.08.2017 22:00:00 12,6 9,0 - - 11 6 - - WSW 1016,4 40 0,0
15.08.2017 21:00:00 13,9 8,8 - - 21 11 - - WSW 1015,5 50 0,0
15.08.2017 20:00:00 16,0 9,0 - - 22 12 - - WSW 1014,7 50 0,0
15.08.2017 19:00:00 17,5 8,7 - - 31 17 46 25 W 1013,9 50 0,0
15.08.2017 18:00:00 18,7 9,0 - - 34 18 46 25 WSW 1013,2 35 0,0
15.08.2017 17:00:00 20,2 9,7 - - 29 16 52 28 WSW 1012,9 30 0,0
15.08.2017 16:00:00 20,5 9,6 - - 31 17 48 26 WSW 1012,3 24 0,0
15.08.2017 15:00:00 20,6 10,4 - - 29 16 - - W 1011,9 27 0,0
15.08.2017 14:00:00 20,4 10,9 - - 28 15 - - W 1011,4 35 0,0
15.08.2017 13:00:00 20,4 11,0 - - 29 16 - - WSW 1010,9 35 0,0
15.08.2017 12:00:00 18,6 10,4 - - 29 16 - - W 1010,8 50 0,0
15.08.2017 11:00:00 17,0 11,2 - - 28 15 - - WSW 1010,7 50 0,0
15.08.2017 10:00:00 18,0 12,6 15,5 14,4 24 13 - - WSW 1010,1 30 0,0
15.08.2017 09:00:00 16,2 13,6 - - 31 17 - - SW 1009,6 45 0,0
15.08.2017 08:00:00 15,0 13,3 - - 26 14 - - SSW 1009,5 40 0,0
15.08.2017 07:00:00 13,4 12,6 - - 26 14 - - SSW 1009,3 16 0,0
15.08.2017 06:00:00 13,4 12,5 - - 24 13 - - S 1008,9 26 0,0
15.08.2017 05:00:00 13,8 12,9 - - 24 13 - - SSW 1009,0 23 0,0
15.08.2017 04:00:00 13,9 13,2 - - 24 13 - - S 1009,4 16 0,0
15.08.2017 03:00:00 14,3 13,4 - - 26 14 - - SSW 1009,6 20 0,0
15.08.2017 02:00:00 14,4 13,7 - - 28 15 - - S 1009,9 6 0,0
15.08.2017 01:00:00 15,2 13,1 - - 29 16 52 28 S 1010,4 14 0,0
15.08.2017 00:00:00 15,8 12,8 - - 24 13 - - S 1010,9 30 0,0
14.08.2017 23:00:00 15,2 12,9 - - 18 10 - - SSE 1011,5 30 0,0
14.08.2017 22:00:00 15,6 12,4 - - 11 6 - - SE 1011,9 25 0,0
14.08.2017 21:00:00 16,6 12,2 - - 9 5 - - SSE 1012,2 35 0,0
14.08.2017 20:00:00 17,4 12,0 - - 15 8 - - SSE 1012,4 45 0,0
14.08.2017 19:00:00 17,9 11,9 - - 15 8 - - SSE 1012,8 35 0,0
14.08.2017 18:00:00 18,8 11,7 - - 21 11 - - S 1013,2 29 0,0
14.08.2017 17:00:00 19,0 11,1 - - 29 16 - - S 1013,7 30 0,0
14.08.2017 16:00:00 19,6 10,7 - - 31 17 46 25 S 1013,6 21 0,0
14.08.2017 15:00:00 19,3 10,9 - - 39 21 57 31 S 1013,8 17 0,0
14.08.2017 14:00:00 19,5 10,8 - - 37 20 54 29 S 1014,3 40 0,0
14.08.2017 13:00:00 17,1 9,2 - - 34 18 55 30 S 1014,9 28 0,0
14.08.2017 12:00:00 17,4 8,1 - - 39 21 54 29 S 1015,3 50 0,0
14.08.2017 11:00:00 15,4 9,8 - - 26 14 - - S 1016,0 35 0,0
14.08.2017 10:00:00 14,4 11,2 15,2 14,4 13 7 - - S 1016,5 27 0,0
14.08.2017 09:00:00 13,9 11,1 - - 21 11 - - S 1016,7 24 0,0
14.08.2017 08:00:00 13,6 10,4 - - 18 10 - - S 1016,8 30 0,0
14.08.2017 07:00:00 13,1 10,5 - - 18 10 - - S 1017,1 23 0,0
14.08.2017 06:00:00 12,9 10,2 - - 28 15 - - SSE 1017,1 27 0,0
14.08.2017 05:00:00 13,0 10,0 - - 28 15 - - SSE 1017,5 30 0,0
14.08.2017 04:00:00 13,0 9,7 - - 26 14 - - SSE 1018,0 35 0,0
14.08.2017 03:00:00 13,4 9,1 - - 28 15 - - S 1018,3 35 0,0
14.08.2017 02:00:00 12,6 8,6 - - 22 12 - - SSE 1018,9 35 0,0
14.08.2017 01:00:00 12,4 6,5 - - 22 12 - - SSE 1019,7 50 0,0
14.08.2017 00:00:00 11,5 6,9 - - 21 11 - - S 1020,1 50 0,0
13.08.2017 23:00:00 11,7 6,8 - - 18 10 - - SSE 1020,4 50 0,0
13.08.2017 22:00:00 11,8 6,3 - - 18 10 - - S 1020,5 50 0,0
13.08.2017 21:00:00 12,3 7,3 - - 15 8 - - SSE 1020,3 45 0,0
13.08.2017 20:00:00 14,6 8,8 - - 16 9 - - SSE 1020,2 50 0,0
13.08.2017 19:00:00 15,4 8,2 - - 16 9 - - SE 1020,3 50 0,0
13.08.2017 18:00:00 15,6 8,3 - - 16 9 - - ESE 1020,2 40 0,0
13.08.2017 17:00:00 16,9 7,2 - - 8 4 - - E 1020,2 35 0,0
13.08.2017 16:00:00 15,8 8,3 - - 11 6 - - E 1020,3 35 0,0
13.08.2017 15:00:00 16,6 7,7 - - 13 7 - - ENE 1020,4 26 0,0
13.08.2017 14:00:00 16,1 7,9 - - 13 7 - - NE 1020,4 40 0,0
13.08.2017 13:00:00 15,6 8,3 - - 9 5 - - N 1020,5 25 0,0
13.08.2017 12:00:00 14,6 8,1 - - 11 6 - - NNE 1020,6 35 0,0
13.08.2017 11:00:00 13,9 8,9 - - 9 5 - - NNW 1020,5 40 0,0
13.08.2017 10:00:00 13,9 10,0 15,0 14,4 15 8 - - WNW 1020,3 30 0,0
13.08.2017 09:00:00 12,2 9,3 - - 16 9 - - W 1019,9 45 0,0
13.08.2017 08:00:00 10,6 8,9 - - 16 9 - - W 1019,4 40 0,0
13.08.2017 07:00:00 8,7 8,2 - - 8 4 - - WSW 1019,5 30 0,0
13.08.2017 06:00:00 7,9 7,3 - - 4 2 - - SW 1019,2 29 0,0
13.08.2017 05:00:00 8,5 7,6 - - 8 4 - - SSW 1018,9 30 0,0
13.08.2017 04:00:00 10,1 9,1 - - 13 7 - - W 1018,5 30 0,0
13.08.2017 03:00:00 10,7 9,8 - - 11 6 - - WSW 1018,2 30 0,0
13.08.2017 02:00:00 10,8 10,1 - - 9 5 - - WSW 1018,1 25 0,0
13.08.2017 01:00:00 10,6 10,1 - - 8 4 - - SW 1018,1 13 0,0
13.08.2017 00:00:00 9,9 9,4 - - 8 4 - - SSW 1018,0 16 0,0
12.08.2017 23:00:00 11,3 11,0 - - 11 6 - - WSW 1017,7 12 0,0
12.08.2017 22:00:00 11,9 11,6 - - 8 4 - - WSW 1017,6 5 0,0
12.08.2017 21:00:00 12,1 11,8 - - 9 5 - - WNW 1017,3 10 0,0
12.08.2017 20:00:00 12,3 12,0 - - 4 2 - - N 1016,4 11 0,0
12.08.2017 19:00:00 12,5 12,2 - - 9 5 - - NNW 1016,2 4,8 0,0
12.08.2017 18:00:00 12,6 12,4 - - 13 7 - - NNW 1015,4 13 0,0
12.08.2017 17:00:00 12,5 12,4 - - 13 7 - - NNW 1015,2 8 0,0
12.08.2017 16:00:00 12,5 12,4 - - 15 8 - - NNW 1014,6 4,5 0,0
12.08.2017 15:00:00 12,8 12,5 - - 15 8 - - N 1013,8 2,6 0,0
12.08.2017 14:00:00 13,8 12,1 - - 15 8 - - N 1013,1 6 0,0
12.08.2017 13:00:00 15,8 12,1 - - 13 7 - - NNW 1012,3 35 0,0
12.08.2017 12:00:00 17,5 11,8 - - 21 11 - - W 1011,6 35 0,0
12.08.2017 11:00:00 16,8 11,3 - - 24 13 - - W 1011,3 45 0,0
12.08.2017 10:00:00 15,6 11,4 15,2 14,5 18 10 - - W 1011,4 30 0,0
12.08.2017 09:00:00 14,2 10,7 - - 18 10 - - W 1011,2 50 0,0
12.08.2017 08:00:00 13,9 10,4 - - 18 10 - - W 1010,7 45 0,0
12.08.2017 07:00:00 12,9 10,5 - - 15 8 - - W 1010,2 50 0,0
12.08.2017 06:00:00 12,2 11,0 - - 11 6 - - W 1010,3 50 0,0
12.08.2017 05:00:00 12,0 10,9 - - 13 7 - - W 1010,1 50 0,0
12.08.2017 04:00:00 12,8 11,4 - - 15 8 - - W 1009,9 50 0,0
12.08.2017 03:00:00 13,8 11,7 - - 16 9 - - W 1010,0 50 0,0
12.08.2017 02:00:00 15,1 12,9 - - 22 12 - - W 1009,8 50 0,0
12.08.2017 01:00:00 14,9 13,9 - - 15 8 - - W 1009,8 30 0,0
12.08.2017 00:00:00 16,0 14,6 - - 21 11 - - W 1010,1 29 0,0

tt = temperature
td = dewpoint
tt -20cm = temperature -20cm
tt -100cm = temperature -100cm
ff = wind speed
fx = gusts
dd = wind direction
ppp = reduced air pressure
vv = visibility
rr = precipitation

Next stations